This is the latest recevied weather packets stored in our database for station/object AB1AU. If no packets are shown the sender has not sent any weather packets the latest 10 day(s).
| Time | Temp. | Humidity | Pressure | Rain* | Wind** | Luminosity | Snow |
|---|---|---|---|---|---|---|---|
| 1777875274 | 0.56° C | 85% | 1008.1 hPa | 0 mm | - | 0 W/m² | - |
| 1777874971 | 0.56° C | 84% | 1008 hPa | 0 mm | - | 0 W/m² | - |
| 1777874667 | 0.56° C | 84% | 1007.9 hPa | 0 mm | - | 0 W/m² | - |
| 1777874363 | 0.56° C | 84% | 1007.9 hPa | 0 mm | - | 0 W/m² | - |
| 1777874062 | 0.56° C | 84% | 1008 hPa | 0 mm | - | 0 W/m² | - |
| 1777873760 | 0.56° C | 83% | 1007.8 hPa | 0 mm | - | 0 W/m² | - |
| 1777873455 | 0.56° C | 83% | 1007.9 hPa | 0 mm | - | 0 W/m² | - |
| 1777873152 | 0.56° C | 83% | 1008 hPa | 0 mm | - | 0 W/m² | - |
| 1777872849 | 1.11° C | 82% | 1007.9 hPa | 0 mm | - | 0 W/m² | - |
| 1777872547 | 1.11° C | 82% | 1007.7 hPa | 0 mm | - | 0 W/m² | - |
| 1777872244 | 1.11° C | 81% | 1008 hPa | 0 mm | - | 0 W/m² | - |
| 1777871941 | 1.11° C | 80% | 1008.1 hPa | 0 mm | - | 0 W/m² | - |
| 1777871638 | 1.11° C | 79% | 1007.8 hPa | 0 mm | - | 0 W/m² | - |
| 1777871334 | 1.67° C | 78% | 1007.9 hPa | 0 mm | - | 0 W/m² | - |
| 1777871032 | 1.67° C | 78% | 1007.9 hPa | 0 mm | - | 0 W/m² | - |
| 1777870730 | 1.67° C | 77% | 1007.9 hPa | 0 mm | - | 0 W/m² | - |
| 1777870430 | 1.67° C | 76% | 1008.1 hPa | 0 mm | - | 0 W/m² | - |
| 1777870127 | 2.22° C | 75% | 1008 hPa | 0 mm | - | 0 W/m² | - |
| 1777869824 | 2.22° C | 75% | 1007.8 hPa | 0 mm | - | 0 W/m² | - |
| 1777869521 | 2.22° C | 74% | 1007.8 hPa | 0 mm | - | 0 W/m² | - |
| 1777869218 | 2.78° C | 74% | 1007.8 hPa | 0 mm | - | 0 W/m² | - |
| 1777868915 | 2.78° C | 73% | 1008 hPa | 0 mm | - | 0 W/m² | - |
| 1777868612 | 3.33° C | 72% | 1007.9 hPa | 0 mm | - | 0 W/m² | - |
| 1777868308 | 3.33° C | 70% | 1007.8 hPa | 0 mm | - | 0 W/m² | - |
| 1777868004 | 3.89° C | 69% | 1007.9 hPa | 0 mm | - | 0 W/m² | - |
* Rain latest hour (hover to see other rain measurements)
** Current wind speed in m/s (hover to see current wind gust speed)